STARLINK-35786

Last updated on Fri Dec 19 2025 00:02:09 GMT+0000 (Coordinated Universal Time)

1 67040U 25294L 25351.83335648 -.01327169 52486-3 -32077-2 0 9995 2 67040 43.0001 151.2888 0001819 282.0866 131.4460 15.95507388 2126
UTC large
Height (km)
Speed (km/s)
/
Latitude / Longitude
Inclination (degrees)
Orbital Period (minutes)
Azimuth
Elevation
Range (km)
Doppler Factor

Next 0 passes for location: London (51.5072 / 0.1276)

Sorry there are no passes over London.